When you browse on this site, cookies collect data to enhance your experience and personalize the content and advertising you see.
Visit our Privacy Policy to learn more. By continuing to use the site, you agree to this use of cookies and data.
  • In France
  • List of Countries
  • For 7 days
  • Water Temperature
  • Satellite Maps
  • Weather Map
  • Weather Widgets
  • user-avatar
    Login

    Hourly Weather Wiktoria

    Today, 21 March, Thursday

    Time Temperature Precipitation Wind Pressure Humidity
    00:00 +21°C° 0 mm 3 mps 748 mmHg 82%
    01:00 +20°C° 0 mm 3 mps 748 mmHg 86%
    02:00 +20°C° 0 mm 3 mps 748 mmHg 87%
    03:00 +19°C° 0 mm 2 mps 748 mmHg 88%
    04:00 +19°C° 0 mm 2 mps 748 mmHg 89%
    05:00 +19°C° 0 mm 2 mps 748 mmHg 87%
    06:00 +19°C° 0 mm 2 mps 748 mmHg 86%
    07:00 +19°C° 0 mm 2 mps 749 mmHg 85%
    08:00 +23°C° 0 mm 2 mps 749 mmHg 74%
    09:00 +25°C° 0 mm 3 mps 749 mmHg 63%
    10:00 +28°C° 0 mm 3 mps 749 mmHg 52%
    11:00 +30°C° 0 mm 2 mps 749 mmHg 45%
    12:00 +31°C° 0 mm 1 mps 748 mmHg 39%
    13:00 +33°C° 0 mm 1 mps 748 mmHg 33%
    14:00 +33°C° 0 mm 1 mps 748 mmHg 31%
    15:00 +34°C° 0 mm 1 mps 747 mmHg 29%
    16:00 +34°C° 0 mm 1 mps 747 mmHg 27%
    17:00 +32°C° 0 mm 2 mps 747 mmHg 31%
    18:00 +30°C° 0 mm 2 mps 747 mmHg 35%
    19:00 +28°C° 0 mm 3 mps 747 mmHg 40%
    20:00 +27°C° 0 mm 3 mps 748 mmHg 47%
    21:00 +26°C° 0 mm 4 mps 748 mmHg 55%
    22:00 +25°C° 0 mm 4 mps 748 mmHg 63%
    23:00 +23°C° 0.2 mm 4 mps 748 mmHg 65%

    Tomorrow, 22 March, Friday

    Time Temperature Precipitation Wind Pressure Humidity
    00:00 +22°C° 0.2 mm 4 mps 748 mmHg 67%
    01:00 +22°C° 0.2 mm 3 mps 748 mmHg 69%
    02:00 +22°C° 0.3 mm 3 mps 748 mmHg 70%
    03:00 +21°C° 0.3 mm 3 mps 748 mmHg 72%
    04:00 +21°C° 0.3 mm 3 mps 748 mmHg 73%
    05:00 +21°C° 0.1 mm 4 mps 749 mmHg 74%
    06:00 +21°C° 0.1 mm 4 mps 749 mmHg 76%
    07:00 +21°C° 0.1 mm 4 mps 749 mmHg 77%
    08:00 +22°C° 0 mm 5 mps 749 mmHg 71%
    09:00 +25°C° 0 mm 5 mps 749 mmHg 64%
    10:00 +27°C° 0 mm 5 mps 749 mmHg 58%
    11:00 +29°C° 0 mm 5 mps 749 mmHg 52%
    12:00 +30°C° 0 mm 4 mps 748 mmHg 46%
    13:00 +33°C° 0 mm 4 mps 748 mmHg 40%
    14:00 +34°C° 0 mm 3 mps 747 mmHg 37%
    15:00 +34°C° 0 mm 3 mps 747 mmHg 34%
    16:00 +35°C° 0 mm 2 mps 746 mmHg 31%
    17:00 +33°C° 0 mm 3 mps 746 mmHg 36%
    18:00 +30°C° 0 mm 3 mps 746 mmHg 40%
    19:00 +29°C° 0 mm 3 mps 746 mmHg 44%
    20:00 +28°C° 0 mm 4 mps 747 mmHg 47%
    21:00 +27°C° 0 mm 4 mps 747 mmHg 49%
    22:00 +26°C° 0 mm 4 mps 747 mmHg 51%
    23:00 +26°C° 0 mm 5 mps 747 mmHg 52%

    Day after tomorrow, 23 March, Saturday

    Time Temperature Precipitation Wind Pressure Humidity
    00:00 +26°C° 0 mm 5 mps 747 mmHg 53%
    01:00 +24°C° 0 mm 6 mps 746 mmHg 54%
    02:00 +24°C° 0 mm 6 mps 746 mmHg 57%
    03:00 +25°C° 0 mm 5 mps 746 mmHg 59%
    04:00 +23°C° 0 mm 5 mps 745 mmHg 62%
    05:00 +23°C° 0.1 mm 5 mps 745 mmHg 62%
    06:00 +23°C° 0.1 mm 5 mps 745 mmHg 63%
    07:00 +23°C° 0.1 mm 6 mps 745 mmHg 64%
    08:00 +23°C° 0 mm 6 mps 745 mmHg 62%
    09:00 +24°C° 0 mm 7 mps 745 mmHg 60%
    10:00 +24°C° 0 mm 8 mps 745 mmHg 58%
    11:00 +29°C° 0 mm 8 mps 745 mmHg 47%
    12:00 +33°C° 0 mm 8 mps 744 mmHg 36%
    13:00 +37°C° 0 mm 8 mps 744 mmHg 25%
    14:00 +36°C° 0 mm 7 mps 743 mmHg 24%
    15:00 +36°C° 0 mm 6 mps 743 mmHg 23%
    16:00 +37°C° 0 mm 5 mps 742 mmHg 22%
    17:00 +35°C° 0 mm 5 mps 742 mmHg 24%
    18:00 +33°C° 0 mm 4 mps 743 mmHg 27%
    19:00 +30°C° 0 mm 4 mps 743 mmHg 30%
    20:00 +29°C° 0 mm 3 mps 744 mmHg 32%
    21:00 +28°C° 0 mm 3 mps 745 mmHg 34%
    22:00 +27°C° 0 mm 3 mps 745 mmHg 36%
    23:00 +27°C° 0 mm 3 mps 746 mmHg 37%

    24 March, Sunday

    Time Temperature Precipitation Wind Pressure Humidity
    00:00 +26°C° 0 mm 3 mps 746 mmHg 39%
    01:00 +26°C° 0 mm 4 mps 746 mmHg 41%
    02:00 +25°C° 0 mm 3 mps 746 mmHg 47%
    03:00 +24°C° 0 mm 2 mps 746 mmHg 53%
    04:00 +23°C° 0 mm 1 mps 746 mmHg 58%
    05:00 +23°C° 0 mm 1 mps 746 mmHg 60%
    06:00 +23°C° 0 mm 1 mps 746 mmHg 62%
    07:00 +21°C° 0 mm 2 mps 746 mmHg 63%
    08:00 +23°C° 0 mm 2 mps 747 mmHg 60%
    09:00 +24°C° 0 mm 3 mps 747 mmHg 57%
    10:00 +25°C° 0 mm 3 mps 747 mmHg 54%
    11:00 +27°C° 0 mm 4 mps 747 mmHg 52%
    12:00 +28°C° 0 mm 5 mps 746 mmHg 50%
    13:00 +29°C° 0 mm 6 mps 746 mmHg 48%
    14:00 +28°C° 0 mm 7 mps 746 mmHg 49%
    15:00 +28°C° 0 mm 7 mps 745 mmHg 51%
    16:00 +28°C° 0 mm 7 mps 745 mmHg 52%
    17:00 +26°C° 0.3 mm 7 mps 745 mmHg 61%
    18:00 +23°C° 0.3 mm 6 mps 745 mmHg 70%
    19:00 +22°C° 0.3 mm 6 mps 745 mmHg 78%
    20:00 +22°C° 0.6 mm 6 mps 745 mmHg 80%
    21:00 +22°C° 0.6 mm 6 mps 744 mmHg 82%
    22:00 +21°C° 0.6 mm 6 mps 744 mmHg 83%
    23:00 +21°C° 0.4 mm 6 mps 744 mmHg 82%

    25 March, Monday

    Time Temperature Precipitation Wind Pressure Humidity
    00:00 +22°C° 0.4 mm 6 mps 743 mmHg 80%
    01:00 +22°C° 0.4 mm 6 mps 742 mmHg 79%
    02:00 +22°C° 0.2 mm 6 mps 742 mmHg 77%
    03:00 +22°C° 0.2 mm 6 mps 742 mmHg 76%
    04:00 +23°C° 0.2 mm 7 mps 742 mmHg 74%
    05:00 +22°C° 0.5 mm 6 mps 742 mmHg 72%
    06:00 +21°C° 0.5 mm 5 mps 743 mmHg 71%
    07:00 +20°C° 0.5 mm 5 mps 743 mmHg 70%
    08:00 +19°C° 0 mm 5 mps 744 mmHg 65%
    09:00 +19°C° 0 mm 6 mps 744 mmHg 60%
    10:00 +18°C° 0 mm 7 mps 745 mmHg 55%
    11:00 +18°C° 0 mm 8 mps 745 mmHg 51%
    12:00 +18°C° 0 mm 8 mps 745 mmHg 46%
    13:00 +18°C° 0 mm 8 mps 746 mmHg 42%
    14:00 +18°C° 0 mm 8 mps 746 mmHg 38%
    15:00 +20°C° 0 mm 7 mps 746 mmHg 34%
    16:00 +21°C° 0 mm 7 mps 746 mmHg 31%
    17:00 +19°C° 0 mm 6 mps 747 mmHg 32%
    18:00 +17°C° 0 mm 5 mps 748 mmHg 33%
    19:00 +17°C° 0 mm 4 mps 748 mmHg 35%
    20:00 +16°C° 0 mm 3 mps 749 mmHg 36%
    21:00 +14°C° 0 mm 3 mps 749 mmHg 38%
    22:00 +13°C° 0 mm 3 mps 750 mmHg 40%
    23:00 +12°C° 0 mm 3 mps 750 mmHg 42%

    26 March, Tuesday

    Time Temperature Precipitation Wind Pressure Humidity
    00:00 +12°C° 0 mm 3 mps 750 mmHg 44%
    01:00 +11°C° 0 mm 3 mps 750 mmHg 46%
    02:00 +10°C° 0 mm 3 mps 750 mmHg 49%
    03:00 +10°C° 0 mm 3 mps 750 mmHg 52%
    04:00 +9°C° 0 mm 2 mps 751 mmHg 56%
    05:00 +9°C° 0 mm 2 mps 751 mmHg 58%
    06:00 +9°C° 0 mm 2 mps 752 mmHg 61%
    07:00 +9°C° 0 mm 2 mps 752 mmHg 64%
    08:00 +11°C° 0 mm 3 mps 752 mmHg 58%
    09:00 +13°C° 0 mm 4 mps 753 mmHg 52%
    10:00 +16°C° 0 mm 5 mps 753 mmHg 46%
    11:00 +17°C° 0 mm 5 mps 753 mmHg 42%
    12:00 +19°C° 0 mm 5 mps 752 mmHg 39%
    13:00 +21°C° 0 mm 5 mps 752 mmHg 36%
    14:00 +21°C° 0 mm 5 mps 752 mmHg 35%
    15:00 +21°C° 0 mm 5 mps 752 mmHg 34%
    16:00 +22°C° 0 mm 6 mps 752 mmHg 34%
    17:00 +20°C° 0 mm 5 mps 752 mmHg 39%
    18:00 +18°C° 0 mm 4 mps 753 mmHg 44%
    19:00 +17°C° 0 mm 3 mps 754 mmHg 49%
    20:00 +16°C° 0 mm 3 mps 754 mmHg 54%
    21:00 +14°C° 0 mm 3 mps 755 mmHg 59%
    22:00 +14°C° 0 mm 2 mps 755 mmHg 65%
    23:00 +13°C° 0 mm 2 mps 755 mmHg 69%
    Show more